Regional Weather Roundup
Issued by NWS Charleston, SC

Current Version | Previous Version | Text Only | Print | Product List | Glossary Off
Versions: 1 2 3 4 5 6 7 8 9 10 11 12 13 14 15 16 17 18 19 20 21 22 23 24 25 26 27 28 29 30 31 32 33 34 35 36 37 38 39 40 41 42 43 44 45 46 47 48 49 50

000
ASUS42 KCHS 282112
RWRCHS

REGIONAL WEATHER ROUNDUP
NATIONAL WEATHER SERVICE CHARLESTON SC
500 PM EDT FRI APR 28 2017

NOTE: "FAIR" INDICATES FEW OR NO CLOUDS BELOW 12,000 FEET WITH NO
SIGNIFICANT WEATHER AND/OR OBSTRUCTIONS TO VISIBILITY.

NOT ALL STATIONS ARE QUALITY CONTROLLED. USE DATA WITH CAUTION...
ESPECIALLY DEWPOINT OBSERVATIONS.

SCZ027-030-031-034>040-042>050-282200-
...SOUTHEAST SOUTH CAROLINA...

CITY           SKY/WX    TMP DP  RH WIND       PRES   REMARKS
N CHARLESTON   PTSUNNY   83  72  69 S20       30.09R
WATERFRONT PRK   N/A     79  75  87 SW14      30.07F
JOHNS ISLAND   CLOUDY    81  75  83 S14G23    30.09F
PINOPOLIS        N/A     84  73  70 S5        30.00S HX  91
MONCKS CORNER  CLOUDY    82  72  69 S9G16     30.08S
SUMMERVILLE    FAIR      86  72  62 S8        30.08S HX  92
BEAUFORT MCAS  MOSUNNY   83  77  82 SE10G16   30.07S HX  92
BEAUFORT ARPT  FAIR      81  73  78 S12       30.07S HAZE
HILTON HEAD IS MOSUNNY   81  75  83 S6G17     30.09S
WALTERBORO     PTCLDY    86  72  62 SE13      30.07S HX  92
ALLENDALE      FAIR      91  68  46 S12       30.03S HX  95

...SOUTHERN MIDLANDS AND PEE DEE...

CITY           SKY/WX    TMP DP  RH WIND       PRES   REMARKS
GEORGETOWN     FAIR      82  73  74 S13G20    30.10S
KINGSTREE      FAIR      88  70  55 S8G16     30.06S HX  92
ORANGEBURG     SUNNY     89  67  47 SW12      30.05S HX  92
BARNWELL       FAIR      93  70  46 SW9       30.04S HX  99
AIKEN          FAIR      88  66  48 S12       30.08S HX  90
MANNING        FAIR      86  70  58 S18G25    30.06R HX  90
COLUMBIA       MOSUNNY   92  68  45 S14       30.02F HX  96
SUMTER         MOSUNNY   89  67  48 S9        30.03S HX  93
FLORENCE       SUNNY     90  68  48 SW10      30.05F HX  94
MYRTLE BEACH   PTSUNNY   81  75  83 S17       30.10R
N MYRTLE BEACH MOSUNNY   79  74  84 S16G25    30.10S

$$

GAZ063-065-086>088-099>101-113>116-118-119-134>141-150-282200-
...SOUTHEAST GEORGIA...

CITY           SKY/WX    TMP DP  RH WIND       PRES   REMARKS
SAVANNAH ARPT  MOSUNNY   89  70  53 SE9       30.05S HX  94
HUNTER AAF     SUNNY     85  78  78 SE8       30.04S HX  97
FORT STEWART   SUNNY     90  71  52 SE13      30.01F HX  96
STATESBORO     SUNNY     93  63  36 S6        30.03S HX  94
SYLVANIA       PTCLDY   N/A N/A N/A S5        30.04S
CLAXTON        FAIR      92  70  49 SE6       30.02F HX  98

...CSRA...CENTRAL AND FAR SOUTHEAST GEORGIA...

CITY           SKY/WX    TMP DP  RH WIND       PRES   REMARKS
THOMSON        SUNNY     88  66  47 W8        30.08F HX  90
AUGUSTA-BUSH   SUNNY     92  68  45 S14       30.01S HX  96
AUGUSTA-DANIEL MOSUNNY   91  64  40 S12       30.04S HX  92
SWAINSBORO     FAIR      91  64  40 S8        30.03F HX  93
VIDALIA        MOSUNNY   95  64  36 S12G17    30.02F HX  97
EASTMAN        FAIR      92  40  16 SW7       30.04F
HAZLEHURST     FAIR      93  67  41 S9        30.01F HX  97
ALMA           MOSUNNY   93  66  40 S7        30.02S HX  96
WAYCROSS       MOSUNNY   95  71  44 S9        30.02S HX 102
JESUP          FAIR      95  63  34 S9        30.03S HX  96
BAXLEY         FAIR      95  70  43 SW10      30.02S HX 101
BRUNSWICK      SUNNY     88  73  62 SE9       30.06S HX  96
SAINT SIMONS   SUNNY     82  72  71 S9        30.06S

$$

SCZ027-028-034-036>038-045-046-048>050-GAZ119-141-282200-
...LAKE AND SUPPLEMENTAL COASTAL OBSERVATIONS...

STATION/POSITION TIME  TEMP    WIND        PRES    WAVE   SWELL
                       AIR SEA DIR/SP/G            HT/PER HT/PER/DIR
                 (UTC) (F)     (DEG/KT/KT) (MB)    (FT/S) (FT/S/D)
WINYAH BAY       NOT AVBL
LAKE MURRAY      2020   87     210/  2/  4 1016.6
ACE BASIN NERRS  NOT AVBL
FORT PULASKI     2048   80 76  170/  9/ 12 1018.6F
SAPELO ISLAND    2000   84     160/ 11     1018.0

$$

ANZ835-935-AMZ111-154-330-350-352-354-370-450-454-472-282200-
...C-MAN AND BUOY OBSERVATIONS...

STATION/POSITION TIME  TEMP    WIND        PRES    WAVE   SWELL
                       AIR SEA DIR/SP/G            HT/PER HT/PER/DIR
                 (UTC) (F)     (DEG/KT/KT) (MB)    (FT/S) (FT/S/D)
BUOY 41004       2050   76 75  180/ 10/ 12 1019.5S   4/ 6   3/140/ 6
BUOY 41008       2050   75 74  150/ 10/ 14 1017.9F   3/ 8   2/ 90/ 8
FOLLY BEACH CMAN 2000   78     200/  8/ 10 1019.9F
CAPERS NEARSHORE 2008   76 76  200/  6/  8 1019.3F
FRIPP NEARSHORE  2008   76 76  190/  8/ 12 1018.8S


STATION/POSITION TIME  TEMP    WIND        PRES    WAVE   SWELL
                       AIR SEA DIR/SP/G            HT/PER HT/PER/DIR
                 (UTC) (F)     (DEG/KT/KT) (MB)    (FT/S) (FT/S/D)
5E ST. MARYS GA  2100      76                N/A     3/ 8
FRYING PAN BUOY  2050   76 73  200/  8/ 10 1020.0S   4/ 5   3/170/ 5
BUOY 41025       2050   78 76  210/ 17/ 19 1019.6F   5/ 8   3/120/ 8
CAPE LOOKOUT NC  2000   78     200/ 13/ 16 1019.3F
BUOY 41002       2050   75 76  170/ 10/ 12 1022.4R   4/ 7   3/ 80/ 7
BUOY 41010       2050   78 79  160/ 10/ 12 1020.0F   4/ 8   3/110/ 8
ST AUGUSTINE FL  2100   77 80  150/ 17/ 18 1018.7F


$$




USA.gov is the U.S. government's official web portal to all federal, state and local government web resources and services.